HAWK-3A

Last updated on Sun Jun 21 2026 00:03:43 GMT+0000 (Coordinated Universal Time)

1 48957U 21059CG 26171.44749692 .00037993 00000+0 31924-3 0 9994 2 48957 97.6721 11.3579 0003334 317.4504 42.6499 15.69808898278362
UTC large
Height (km)
Speed (km/s)
/
Latitude / Longitude
Inclination (degrees)
Orbital Period (minutes)
Azimuth
Elevation
Range (km)
Doppler Factor

Next 0 passes for location: London (51.5072 / 0.1276)

No passes found over London.
HAWK-3A